Time,TemperatureF,DewpointF,PressureIn,WindDirection,WindDirectionDegrees,WindSpeedMPH,WindSpeedGustMPH,Humidity,HourlyPrecipIn,Conditions,Clouds,dailyrainin,SolarRadiationWatts/m^2,SoftwareType,DateUTC
2013-04-18 00:00:00,46.5,34.2,30.17,East,87,1.4,6.9,62,0.00,BKN,OVC,0.00,0.0,WeatherDisplay:10.37,2013-04-18 04:00:00,
2013-04-18 00:01:00,46.5,34.2,30.17,East,87,1.4,6.9,62,0.00,BKN,OVC,0.00,0.0,WeatherDisplay:10.37,2013-04-18 04:01:00,
2013-04-18 00:06:00,46.5,34.2,30.17,East,83,1.6,3.5,62,0.00,BKN,OVC,0.00,0.0,WeatherDisplay:10.37,2013-04-18 04:06:00,
2013-04-18 00:11:00,46.6,34.3,30.17,East,86,3.9,8.1,62,0.00,BKN,OVC,0.00,0.0,WeatherDisplay:10.37,2013-04-18 04:11:00,
2013-04-18 00:16:00,46.7,34.4,30.18,East,86,2.5,5.0,62,0.00,BKN,OVC,0.00,0.0,WeatherDisplay:10.37,2013-04-18 04:16:00,
2013-04-18 00:21:00,46.9,35.0,30.18,East,84,3.0,5.0,63,0.00,BKN,OVC,0.00,0.0,WeatherDisplay:10.37,2013-04-18 04:21:00,
2013-04-18 00:26:00,47.1,34.7,30.19,East,84,4.3,5.8,62,0.00,BKN,OVC,0.00,0.0,WeatherDisplay:10.37,2013-04-18 04:26:00,
2013-04-18 00:31:00,47.2,34.8,30.19,East,84,3.3,6.0,62,0.00,BKN,OVC,0.00,0.0,WeatherDisplay:10.37,2013-04-18 04:31:00,
2013-04-18 00:36:00,47.3,35.3,30.20,East,84,2.5,5.0,63,0.00,BKN,OVC,0.00,0.0,WeatherDisplay:10.37,2013-04-18 04:36:00,
2013-04-18 00:41:00,47.2,34.8,30.19,East,84,3.8,5.0,62,0.00,BKN,OVC,0.00,0.0,WeatherDisplay:10.37,2013-04-18 04:41:00,
2013-04-18 00:46:00,47.1,34.7,30.19,East,82,3.7,6.9,62,0.00,BKN,OVC,0.00,0.0,WeatherDisplay:10.37,2013-04-18 04:46:00,
2013-04-18 00:52:00,46.9,34.6,30.18,East,82,4.8,7.0,62,0.00,BKN,OVC,0.00,0.0,WeatherDisplay:10.37,2013-04-18 04:52:00,
2013-04-18 00:57:00,46.9,35.0,30.18,East,82,4.1,6.9,63,0.00,BKN,OVC,0.00,0.0,WeatherDisplay:10.37,2013-04-18 04:57:00,
2013-04-18 01:02:00,46.8,35.3,30.18,East,82,2.5,5.0,64,0.00,BKN,OVC,0.00,0.0,WeatherDisplay:10.37,2013-04-18 05:02:00,
2013-04-18 01:07:00,46.7,35.2,30.17,East,81,3.9,7.0,64,0.00,-RA,OVC,0.00,0.0,WeatherDisplay:10.37,2013-04-18 05:07:00,
2013-04-18 01:12:00,46.7,35.2,30.17,East,81,1.4,5.0,64,0.00,-RA,OVC,0.00,0.0,WeatherDisplay:10.37,2013-04-18 05:12:00,
2013-04-18 01:17:00,46.7,35.2,30.17,East,81,4.3,7.0,64,0.00,-RA,OVC,0.00,0.0,WeatherDisplay:10.37,2013-04-18 05:17:00,
2013-04-18 01:22:00,46.7,35.6,30.16,East,80,4.0,7.0,65,0.00,-RA,OVC,0.00,0.0,WeatherDisplay:10.37,2013-04-18 05:22:00,
2013-04-18 01:27:00,46.8,35.6,30.15,East,80,5.7,8.1,65,0.00,-RA,OVC,0.00,0.0,WeatherDisplay:10.37,2013-04-18 05:27:00,
2013-04-18 01:32:00,47.0,35.8,30.14,East,80,2.9,5.8,65,0.00,-RA,OVC,0.00,0.0,WeatherDisplay:10.37,2013-04-18 05:32:00,
2013-04-18 01:37:00,47.3,35.7,30.14,East,80,3.5,6.0,64,0.00,-RA,OVC,0.00,0.0,WeatherDisplay:10.37,2013-04-18 05:37:00,
2013-04-18 01:42:00,47.7,36.1,30.14,East,80,4.8,6.0,64,0.00,-RA,OVC,0.00,0.0,WeatherDisplay:10.37,2013-04-18 05:42:00,
2013-04-18 01:47:00,48.1,36.5,30.14,ENE,78,2.3,4.6,64,0.00,-RA,OVC,0.00,0.0,WeatherDisplay:10.37,2013-04-18 05:47:00,
2013-04-18 01:52:00,48.3,36.7,30.14,ENE,78,2.8,5.0,64,0.00,-RA,OVC,0.00,0.0,WeatherDisplay:10.37,2013-04-18 05:52:00,
2013-04-18 01:57:00,48.6,36.6,30.13,East,79,2.6,6.0,63,0.00,-RA,OVC,0.00,0.0,WeatherDisplay:10.37,2013-04-18 05:57:00,
2013-04-18 02:02:00,49.1,36.6,30.12,East,87,5.4,8.1,62,0.00,-RA,OVC,0.00,0.0,WeatherDisplay:10.37,2013-04-18 06:02:00,
2013-04-18 02:07:00,49.6,36.7,30.12,East,91,4.5,7.0,61,0.00,OVC,,0.00,0.0,WeatherDisplay:10.37,2013-04-18 06:07:00,
2013-04-18 02:12:00,50.2,36.8,30.11,East,101,1.6,6.9,60,0.00,OVC,,0.00,0.0,WeatherDisplay:10.37,2013-04-18 06:12:00,
2013-04-18 02:17:00,50.5,36.7,30.11,ESE,113,1.7,8.1,59,0.00,OVC,,0.00,0.0,WeatherDisplay:10.37,2013-04-18 06:17:00,
2013-04-18 02:22:00,50.9,36.6,30.10,ESE,107,2.5,4.6,58,0.00,OVC,,0.00,0.0,WeatherDisplay:10.37,2013-04-18 06:22:00,
2013-04-18 02:27:00,51.1,36.8,30.10,ESE,107,3.1,5.0,58,0.00,OVC,,0.00,0.0,WeatherDisplay:10.37,2013-04-18 06:27:00,
2013-04-18 02:32:00,51.4,36.7,30.10,ESE,107,1.1,3.5,57,0.00,OVC,,0.00,0.0,WeatherDisplay:10.37,2013-04-18 06:32:00,
2013-04-18 02:37:00,51.5,36.8,30.10,ESE,107,0.1,3.5,57,0.00,OVC,,0.00,0.0,WeatherDisplay:10.37,2013-04-18 06:37:00,
2013-04-18 02:42:00,51.6,36.9,30.10,ESE,107,0.0,0.0,57,0.00,OVC,,0.00,0.0,WeatherDisplay:10.37,2013-04-18 06:42:00,
2013-04-18 02:47:00,51.7,36.9,30.09,ESE,107,0.5,2.3,57,0.00,OVC,,0.00,0.0,WeatherDisplay:10.37,2013-04-18 06:47:00,
2013-04-18 02:52:00,51.9,36.7,30.09,SSE,149,4.3,8.1,56,0.00,OVC,,0.00,0.0,WeatherDisplay:10.37,2013-04-18 06:52:00,
2013-04-18 02:57:00,52.5,36.3,30.08,SE,144,6.6,11.5,54,0.00,OVC,,0.00,0.0,WeatherDisplay:10.37,2013-04-18 06:57:00,
2013-04-18 03:02:00,53.2,36.5,30.07,ESE,123,2.2,11.5,53,0.00,OVC,,0.00,0.0,WeatherDisplay:10.37,2013-04-18 07:02:00,
2013-04-18 03:07:00,53.5,36.3,30.07,ESE,119,4.3,7.0,52,0.00,OVC,,0.00,0.0,WeatherDisplay:10.37,2013-04-18 07:07:00,
2013-04-18 03:12:00,53.9,36.7,30.07,ESE,103,6.4,14.0,52,0.00,OVC,,0.00,0.0,WeatherDisplay:10.37,2013-04-18 07:12:00,
2013-04-18 03:17:00,54.2,36.5,30.07,SE,139,4.6,8.0,51,0.00,OVC,,0.00,0.0,WeatherDisplay:10.37,2013-04-18 07:17:00,
2013-04-18 03:22:00,54.4,36.6,30.06,SE,128,3.6,8.1,51,0.00,OVC,,0.00,0.0,WeatherDisplay:10.37,2013-04-18 07:22:00,
2013-04-18 03:27:00,54.6,36.3,30.06,SSE,156,2.0,4.0,50,0.00,OVC,,0.00,0.0,WeatherDisplay:10.37,2013-04-18 07:27:00,
2013-04-18 03:32:00,54.9,36.1,30.06,SSE,163,5.6,11.5,49,0.00,OVC,,0.00,0.0,WeatherDisplay:10.37,2013-04-18 07:32:00,
2013-04-18 03:37:00,55.1,36.8,30.06,SSE,163,0.9,3.5,50,0.00,OVC,,0.00,0.0,WeatherDisplay:10.37,2013-04-18 07:37:00,
2013-04-18 03:42:00,55.1,36.3,30.06,SSE,159,1.4,4.6,49,0.00,OVC,,0.00,0.0,WeatherDisplay:10.37,2013-04-18 07:42:00,
2013-04-18 03:47:00,55.3,36.5,30.06,SSE,152,6.4,10.4,49,0.00,OVC,,0.00,0.0,WeatherDisplay:10.37,2013-04-18 07:47:00,
2013-04-18 03:52:00,55.5,36.1,30.05,SE,146,5.8,12.7,48,0.00,OVC,,0.00,0.0,WeatherDisplay:10.37,2013-04-18 07:52:00,
2013-04-18 03:57:00,55.7,36.3,30.06,ESE,121,4.5,9.2,48,0.00,OVC,,0.00,0.0,WeatherDisplay:10.37,2013-04-18 07:57:00,
2013-04-18 04:02:00,55.8,36.4,30.05,ESE,106,4.7,10.0,48,0.00,OVC,,0.00,0.0,WeatherDisplay:10.37,2013-04-18 08:02:00,
2013-04-18 04:07:00,55.9,36.5,30.05,ESE,115,5.3,9.2,48,0.00,OVC,,0.00,0.0,WeatherDisplay:10.37,2013-04-18 08:07:00,
2013-04-18 04:12:00,56.0,36.6,30.05,ESE,105,5.2,10.4,48,0.00,OVC,,0.00,0.0,WeatherDisplay:10.37,2013-04-18 08:12:00,
2013-04-18 04:17:00,56.1,36.7,30.05,SE,136,0.9,3.5,48,0.00,OVC,,0.00,0.0,WeatherDisplay:10.37,2013-04-18 08:17:00,
2013-04-18 04:22:00,56.0,37.1,30.04,SE,136,2.4,5.0,49,0.00,OVC,,0.00,0.0,WeatherDisplay:10.37,2013-04-18 08:22:00,
2013-04-18 04:27:00,55.6,38.2,30.04,East,91,5.3,7.0,52,0.00,OVC,,0.00,0.0,WeatherDisplay:10.37,2013-04-18 08:27:00,
2013-04-18 04:32:00,54.3,38.0,30.04,East,79,5.1,8.1,54,0.00,OVC,,0.00,0.0,WeatherDisplay:10.37,2013-04-18 08:32:00,
2013-04-18 04:37:00,52.7,37.4,30.03,East,79,2.3,5.8,56,0.00,OVC,,0.00,0.0,WeatherDisplay:10.37,2013-04-18 08:37:00,
2013-04-18 04:42:00,52.0,37.7,30.04,ENE,78,3.4,7.0,58,0.00,OVC,,0.00,0.0,WeatherDisplay:10.37,2013-04-18 08:42:00,
2013-04-18 04:47:00,51.5,37.6,30.04,ENE,78,3.3,4.6,59,0.00,OVC,,0.00,0.0,WeatherDisplay:10.37,2013-04-18 08:47:00,
2013-04-18 04:52:00,51.1,37.7,30.04,ENE,77,2.9,6.9,60,0.00,OVC,,0.00,0.0,WeatherDisplay:10.37,2013-04-18 08:52:00,
2013-04-18 04:57:00,50.9,37.9,30.03,ENE,77,1.9,4.6,61,0.00,OVC,,0.00,0.0,WeatherDisplay:10.37,2013-04-18 08:57:00,
2013-04-18 05:02:00,50.7,37.7,30.03,ENE,77,3.3,5.0,61,0.00,OVC,,0.00,0.0,WeatherDisplay:10.37,2013-04-18 09:02:00,
2013-04-18 05:07:00,50.5,38.0,30.04,ENE,77,1.5,3.5,62,0.00,OVC,,0.00,0.0,WeatherDisplay:10.37,2013-04-18 09:07:00,
2013-04-18 05:12:00,50.5,38.4,30.03,ENE,77,3.1,4.0,63,0.00,OVC,,0.00,0.0,WeatherDisplay:10.37,2013-04-18 09:12:00,
2013-04-18 05:17:00,50.4,38.3,30.03,ENE,77,2.5,4.0,63,0.00,OVC,,0.00,0.0,WeatherDisplay:10.37,2013-04-18 09:17:00,
2013-04-18 05:22:00,50.3,38.2,30.02,ENE,77,3.7,7.0,63,0.00,OVC,,0.00,0.0,WeatherDisplay:10.37,2013-04-18 09:22:00,
2013-04-18 05:28:00,50.2,38.1,30.02,ENE,77,1.3,3.5,63,0.00,OVC,,0.00,0.0,WeatherDisplay:10.37,2013-04-18 09:28:00,
2013-04-18 05:33:00,50.1,38.4,30.02,ENE,77,1.8,3.5,64,0.00,OVC,,0.00,0.0,WeatherDisplay:10.37,2013-04-18 09:33:00,
2013-04-18 05:38:00,50.0,38.3,30.02,ENE,77,0.1,3.5,64,0.00,OVC,,0.00,0.0,WeatherDisplay:10.37,2013-04-18 09:38:00,
2013-04-18 05:43:00,50.0,38.3,30.02,ENE,77,0.2,3.5,64,0.00,OVC,,0.00,0.0,WeatherDisplay:10.37,2013-04-18 09:43:00,
2013-04-18 05:48:00,50.0,38.3,30.02,ENE,77,1.6,3.5,64,0.00,OVC,,0.00,0.0,WeatherDisplay:10.37,2013-04-18 09:48:00,
2013-04-18 05:53:00,50.0,38.3,30.01,ENE,77,1.2,3.0,64,0.00,OVC,,0.00,0.0,WeatherDisplay:10.37,2013-04-18 09:53:00,
2013-04-18 05:58:00,50.0,38.3,30.01,ENE,77,2.1,4.0,64,0.00,OVC,,0.00,0.0,WeatherDisplay:10.37,2013-04-18 09:58:00,
2013-04-18 06:03:00,50.0,38.3,30.00,ENE,77,1.6,3.5,64,0.00,OVC,,0.00,0.0,WeatherDisplay:10.37,2013-04-18 10:03:00,
2013-04-18 06:08:00,50.0,38.7,30.00,ENE,77,0.7,2.3,65,0.00,OVC,,0.00,0.0,WeatherDisplay:10.37,2013-04-18 10:08:00,
2013-04-18 06:13:00,50.1,38.8,30.00,ENE,77,0.0,0.0,65,0.00,OVC,,0.00,0.0,WeatherDisplay:10.37,2013-04-18 10:13:00,
2013-04-18 06:18:00,50.1,38.8,30.00,ENE,77,0.1,2.3,65,0.00,OVC,,0.00,0.0,WeatherDisplay:10.37,2013-04-18 10:18:00,
2013-04-18 06:23:00,50.1,38.8,30.00,ENE,77,0.0,1.0,65,0.00,OVC,,0.00,0.0,WeatherDisplay:10.37,2013-04-18 10:23:00,
2013-04-18 06:28:00,50.2,39.3,30.00,ENE,77,0.0,1.2,66,0.00,OVC,,0.00,0.0,WeatherDisplay:10.37,2013-04-18 10:28:00,
2013-04-18 06:33:00,50.2,39.3,29.99,ENE,77,0.0,1.2,66,0.00,OVC,,0.00,0.0,WeatherDisplay:10.37,2013-04-18 10:33:00,
2013-04-18 06:38:00,50.2,39.3,29.99,ENE,77,0.0,0.0,66,0.00,OVC,,0.00,0.0,WeatherDisplay:10.37,2013-04-18 10:38:00,
2013-04-18 06:43:00,50.2,39.3,29.99,ENE,77,0.0,0.0,66,0.00,OVC,,0.00,5.0,WeatherDisplay:10.37,2013-04-18 10:43:00,
2013-04-18 06:48:00,50.2,39.7,29.99,ENE,77,0.0,0.0,67,0.00,OVC,,0.00,7.0,WeatherDisplay:10.37,2013-04-18 10:48:00,
2013-04-18 06:57:00,50.1,39.6,29.99,ENE,77,0.2,1.2,67,0.00,OVC,,0.00,12.0,WeatherDisplay:10.37,2013-04-18 10:57:00,
2013-04-18 07:02:00,50.1,39.9,30.00,ENE,77,0.0,0.0,68,0.00,OVC,,0.00,14.0,WeatherDisplay:10.37,2013-04-18 11:02:00,
2013-04-18 07:07:00,50.1,39.9,29.99,ENE,77,0.0,0.0,68,0.00,OVC,,0.00,21.0,WeatherDisplay:10.37,2013-04-18 11:07:00,
2013-04-18 07:12:00,50.0,40.2,30.00,ENE,77,0.0,0.0,69,0.00,OVC,,0.00,28.0,WeatherDisplay:10.37,2013-04-18 11:12:00,
2013-04-18 07:17:00,50.0,40.2,30.00,ENE,77,0.0,1.2,69,0.00,OVC,,0.00,37.0,WeatherDisplay:10.37,2013-04-18 11:17:00,
2013-04-18 07:22:00,50.0,40.6,29.99,ENE,77,0.3,1.2,70,0.00,OVC,,0.00,35.0,WeatherDisplay:10.37,2013-04-18 11:22:00,
2013-04-18 07:27:00,50.0,40.2,30.00,ENE,77,0.9,3.5,69,0.00,OVC,,0.00,37.0,WeatherDisplay:10.37,2013-04-18 11:27:00,
2013-04-18 07:32:00,50.1,40.7,29.99,ENE,77,0.1,2.3,70,0.00,OVC,,0.00,47.0,WeatherDisplay:10.37,2013-04-18 11:32:00,
2013-04-18 07:37:00,50.3,41.3,29.99,ENE,77,0.1,1.2,71,0.00,OVC,,0.00,51.0,WeatherDisplay:10.37,2013-04-18 11:37:00,
2013-04-18 07:42:00,50.5,41.8,29.99,ENE,77,0.7,3.5,72,0.00,OVC,,0.00,47.0,WeatherDisplay:10.37,2013-04-18 11:42:00,
2013-04-18 07:47:00,51.6,44.3,29.99,SSE,158,0.2,4.6,76,0.00,OVC,,0.00,76.0,WeatherDisplay:10.37,2013-04-18 11:47:00,
2013-04-18 07:52:00,52.9,45.9,29.98,South,188,3.2,8.1,77,0.00,OVC,,0.00,97.0,WeatherDisplay:10.37,2013-04-18 11:52:00,
2013-04-18 07:57:00,55.0,47.6,29.98,South,179,4.9,8.1,76,0.00,OVC,,0.00,104.0,WeatherDisplay:10.37,2013-04-18 11:57:00,
2013-04-18 08:02:00,57.4,48.8,29.98,SSW,198,7.2,11.5,73,0.00,OVC,,0.00,125.0,WeatherDisplay:10.37,2013-04-18 12:02:00,
2013-04-18 08:07:00,59.3,49.1,29.98,SSE,167,6.7,10.4,69,0.00,OVC,,0.00,132.0,WeatherDisplay:10.37,2013-04-18 12:07:00,
2013-04-18 08:12:00,60.7,49.7,29.98,South,176,2.4,8.1,67,0.00,OVC,,0.00,130.0,WeatherDisplay:10.37,2013-04-18 12:12:00,
2013-04-18 08:17:00,61.9,50.0,29.98,SW,221,2.7,9.2,65,0.00,OVC,,0.00,127.0,WeatherDisplay:10.37,2013-04-18 12:17:00,
2013-04-18 08:22:00,62.9,50.1,29.98,SSW,204,5.1,8.1,63,0.00,OVC,,0.00,146.0,WeatherDisplay:10.37,2013-04-18 12:22:00,
2013-04-18 08:27:00,63.5,50.7,29.98,South,186,4.2,7.0,63,0.00,OVC,,0.00,148.0,WeatherDisplay:10.37,2013-04-18 12:27:00,
2013-04-18 08:32:00,64.0,50.7,29.98,SSW,194,1.9,5.8,62,0.00,OVC,,0.00,214.0,WeatherDisplay:10.37,2013-04-18 12:32:00,
2013-04-18 08:37:00,64.5,51.2,29.98,South,187,3.5,6.9,62,0.00,OVC,,0.00,330.0,WeatherDisplay:10.37,2013-04-18 12:37:00,
2013-04-18 08:42:00,65.0,51.7,29.97,SSE,168,2.8,10.4,62,0.00,OVC,,0.00,279.0,WeatherDisplay:10.37,2013-04-18 12:42:00,
2013-04-18 08:47:00,65.6,52.2,29.97,SSW,202,1.6,7.0,62,0.00,OVC,,0.00,193.0,WeatherDisplay:10.37,2013-04-18 12:47:00,
2013-04-18 08:52:00,66.1,52.3,29.97,South,186,5.2,11.5,61,0.00,OVC,,0.00,156.0,WeatherDisplay:10.37,2013-04-18 12:52:00,
2013-04-18 08:57:00,66.3,52.4,29.98,SSW,203,3.0,6.9,61,0.00,OVC,,0.00,163.0,WeatherDisplay:10.37,2013-04-18 12:57:00,
2013-04-18 09:02:00,66.3,52.4,29.97,SSW,204,2.5,6.9,61,0.00,OVC,,0.00,179.0,WeatherDisplay:10.37,2013-04-18 13:02:00,
2013-04-18 09:07:00,66.5,52.6,29.97,SW,227,6.6,10.0,61,0.00,BKN,OVC,0.00,193.0,WeatherDisplay:10.37,2013-04-18 13:07:00,
2013-04-18 09:12:00,66.6,52.7,29.96,SSW,198,5.0,9.2,61,0.00,BKN,OVC,0.00,179.0,WeatherDisplay:10.37,2013-04-18 13:12:00,
2013-04-18 09:17:00,66.8,52.9,29.95,WSW,252,5.5,9.2,61,0.00,BKN,OVC,0.00,163.0,WeatherDisplay:10.37,2013-04-18 13:17:00,
2013-04-18 09:22:00,66.9,53.0,29.95,SSW,201,4.7,7.0,61,0.00,BKN,OVC,0.00,160.0,WeatherDisplay:10.37,2013-04-18 13:22:00,
2013-04-18 09:27:00,67.0,53.1,29.95,SW,222,5.2,16.1,61,0.00,BKN,OVC,0.00,214.0,WeatherDisplay:10.37,2013-04-18 13:27:00,
2013-04-18 09:32:00,67.2,53.3,29.94,South,190,4.6,8.1,61,0.00,BKN,OVC,0.00,504.0,WeatherDisplay:10.37,2013-04-18 13:32:00,
2013-04-18 09:38:00,67.9,54.0,29.94,South,169,5.1,11.5,61,0.00,BKN,OVC,0.00,501.0,WeatherDisplay:10.37,2013-04-18 13:38:00,
2013-04-18 09:43:00,68.5,54.1,29.94,SSW,192,4.8,10.4,60,0.00,BKN,OVC,0.00,527.0,WeatherDisplay:10.37,2013-04-18 13:43:00,
2013-04-18 09:48:00,68.8,53.9,29.94,SSE,159,8.4,12.0,59,0.00,BKN,OVC,0.00,636.0,WeatherDisplay:10.37,2013-04-18 13:48:00,
2013-04-18 09:53:00,69.5,54.5,29.93,SSW,207,6.1,11.0,59,0.00,BKN,OVC,0.00,635.0,WeatherDisplay:10.37,2013-04-18 13:53:00,
2013-04-18 09:58:00,70.1,54.6,29.93,SW,215,8.4,13.0,58,0.00,BKN,OVC,0.00,526.0,WeatherDisplay:10.37,2013-04-18 13:58:00,
2013-04-18 10:03:00,70.6,55.1,29.92,South,173,7.6,13.0,58,0.00,BKN,OVC,0.00,462.0,WeatherDisplay:10.37,2013-04-18 14:03:00,
2013-04-18 10:08:00,71.0,55.0,29.92,South,190,12.9,23.0,57,0.00,BKN,OVC,0.00,482.0,WeatherDisplay:10.37,2013-04-18 14:08:00,
2013-04-18 10:13:00,71.2,55.2,29.92,SSW,207,14.9,23.0,57,0.00,BKN,OVC,0.00,441.0,WeatherDisplay:10.37,2013-04-18 14:13:00,
2013-04-18 10:18:00,71.5,55.5,29.91,SW,236,11.8,23.0,57,0.00,BKN,OVC,0.00,396.0,WeatherDisplay:10.37,2013-04-18 14:18:00,
2013-04-18 10:23:00,71.7,55.7,29.91,South,190,6.0,19.6,57,0.00,BKN,OVC,0.00,364.0,WeatherDisplay:10.37,2013-04-18 14:23:00,
2013-04-18 10:28:00,72.0,55.4,29.90,South,186,11.1,21.0,56,0.00,BKN,OVC,0.00,439.0,WeatherDisplay:10.37,2013-04-18 14:28:00,
2013-04-18 10:33:00,72.4,55.8,29.91,South,180,15.0,25.3,56,0.00,BKN,OVC,0.00,364.0,WeatherDisplay:10.37,2013-04-18 14:33:00,
2013-04-18 10:38:00,72.5,55.9,29.90,SSW,203,8.4,21.0,56,0.00,BKN,OVC,0.00,357.0,WeatherDisplay:10.37,2013-04-18 14:38:00,
2013-04-18 10:43:00,72.6,56.0,29.91,SSW,202,10.9,19.6,56,0.00,BKN,OVC,0.00,462.0,WeatherDisplay:10.37,2013-04-18 14:43:00,
2013-04-18 10:48:00,72.7,56.1,29.90,SW,225,9.5,17.3,56,0.00,BKN,OVC,0.00,473.0,WeatherDisplay:10.37,2013-04-18 14:48:00,
2013-04-18 10:53:00,73.0,56.4,29.90,South,181,11.0,18.4,56,0.00,BKN,OVC,0.00,381.0,WeatherDisplay:10.37,2013-04-18 14:53:00,
2013-04-18 10:58:00,73.1,56.0,29.89,SSW,208,7.9,21.0,55,0.00,BKN,OVC,0.00,396.0,WeatherDisplay:10.37,2013-04-18 14:58:00,
2013-04-18 11:03:00,73.1,56.0,29.89,SSE,151,13.4,26.5,55,0.00,BKN,OVC,0.00,406.0,WeatherDisplay:10.37,2013-04-18 15:03:00,
2013-04-18 11:08:00,73.0,55.9,29.89,SSW,200,11.6,18.4,55,0.00,BKN,OVC,0.00,540.0,WeatherDisplay:10.37,2013-04-18 15:08:00,
2013-04-18 11:13:00,73.4,56.7,29.89,SSE,166,8.5,14.0,56,0.00,BKN,OVC,0.00,575.0,WeatherDisplay:10.37,2013-04-18 15:13:00,
2013-04-18 11:18:00,73.8,56.6,29.88,SSE,154,12.0,22.0,55,0.00,BKN,OVC,0.00,531.0,WeatherDisplay:10.37,2013-04-18 15:18:00,
2013-04-18 11:23:00,73.9,56.2,29.89,SSW,201,9.5,23.0,54,0.00,BKN,OVC,0.00,605.0,WeatherDisplay:10.37,2013-04-18 15:23:00,
2013-04-18 11:28:00,74.1,56.4,29.88,SSE,159,13.2,26.5,54,0.00,BKN,OVC,0.00,371.0,WeatherDisplay:10.37,2013-04-18 15:28:00,
2013-04-18 11:33:00,74.3,56.6,29.88,South,184,11.3,17.3,54,0.00,BKN,OVC,0.00,350.0,WeatherDisplay:10.37,2013-04-18 15:33:00,
2013-04-18 11:38:00,74.4,56.7,29.88,SSE,159,11.0,23.0,54,0.00,BKN,OVC,0.00,343.0,WeatherDisplay:10.37,2013-04-18 15:38:00,
2013-04-18 11:43:00,74.8,56.5,29.87,SSW,194,9.6,26.5,53,0.00,BKN,OVC,0.00,812.0,WeatherDisplay:10.37,2013-04-18 15:43:00,
2013-04-18 11:48:00,75.7,56.8,29.87,SSW,198,11.6,19.6,52,0.00,BKN,OVC,0.00,816.0,WeatherDisplay:10.37,2013-04-18 15:48:00,
2013-04-18 11:53:00,76.2,57.3,29.87,SSE,160,11.8,21.9,52,0.00,BKN,OVC,0.00,844.0,WeatherDisplay:10.37,2013-04-18 15:53:00,
2013-04-18 11:58:00,76.6,57.1,29.87,SSW,208,8.9,19.6,51,0.00,BKN,OVC,0.00,844.0,WeatherDisplay:10.37,2013-04-18 15:58:00,
2013-04-18 12:03:00,77.3,57.8,29.87,SSW,195,6.4,18.4,51,0.00,BKN,OVC,0.00,837.0,WeatherDisplay:10.37,2013-04-18 16:03:00,
2013-04-18 12:08:00,77.9,57.8,29.86,SSW,203,7.9,15.0,50,0.00,BKN,OVC,0.00,793.0,WeatherDisplay:10.37,2013-04-18 16:08:00,
2013-04-18 12:13:00,78.2,56.9,29.86,SE,136,15.8,24.2,48,0.00,BKN,OVC,0.00,807.0,WeatherDisplay:10.37,2013-04-18 16:13:00,
2013-04-18 12:18:00,78.5,57.2,29.86,South,182,9.6,17.3,48,0.00,BKN,OVC,0.00,761.0,WeatherDisplay:10.37,2013-04-18 16:18:00,
2013-04-18 12:23:00,78.8,57.4,29.86,SW,228,6.1,18.4,48,0.00,BKN,OVC,0.00,798.0,WeatherDisplay:10.37,2013-04-18 16:23:00,
2013-04-18 12:28:00,79.0,57.6,29.86,SSW,212,10.3,18.4,48,0.00,BKN,OVC,0.00,761.0,WeatherDisplay:10.37,2013-04-18 16:28:00,
2013-04-18 12:33:00,79.2,57.8,29.86,SSW,211,12.0,19.0,48,0.00,BKN,OVC,0.00,786.0,WeatherDisplay:10.37,2013-04-18 16:33:00,
2013-04-18 12:38:00,79.5,58.1,29.86,SSW,207,10.4,21.0,48,0.00,BKN,OVC,0.00,856.0,WeatherDisplay:10.37,2013-04-18 16:38:00,
2013-04-18 12:44:00,80.0,57.4,29.86,SW,233,10.7,17.3,46,0.00,BKN,OVC,0.00,853.0,WeatherDisplay:10.37,2013-04-18 16:44:00,
2013-04-18 12:49:00,80.4,57.1,29.85,WSW,244,12.0,21.0,45,0.00,BKN,OVC,0.00,837.0,WeatherDisplay:10.37,2013-04-18 16:49:00,
2013-04-18 12:54:00,80.4,57.7,29.84,SSE,162,8.4,22.0,46,0.00,BKN,OVC,0.00,758.0,WeatherDisplay:10.37,2013-04-18 16:54:00,
2013-04-18 12:59:00,80.3,57.6,29.85,SSE,167,11.4,24.0,46,0.00,BKN,OVC,0.00,867.0,WeatherDisplay:10.37,2013-04-18 16:59:00,
2013-04-18 13:04:00,80.7,58.6,29.84,South,180,7.8,14.0,47,0.00,BKN,OVC,0.00,817.0,WeatherDisplay:10.37,2013-04-18 17:04:00,
2013-04-18 13:09:00,81.1,58.4,29.83,SSW,196,11.0,21.9,46,0.00,BKN,OVC,0.00,816.0,WeatherDisplay:10.37,2013-04-18 17:09:00,
2013-04-18 13:14:00,81.2,59.1,29.83,South,179,7.6,16.1,47,0.00,BKN,OVC,0.00,833.0,WeatherDisplay:10.37,2013-04-18 17:14:00,
2013-04-18 13:19:00,81.7,58.9,29.82,SSW,213,12.9,21.0,46,0.00,BKN,OVC,0.00,837.0,WeatherDisplay:10.37,2013-04-18 17:19:00,
2013-04-18 13:24:00,81.7,58.9,29.82,SW,230,8.1,15.0,46,0.00,BKN,OVC,0.00,835.0,WeatherDisplay:10.37,2013-04-18 17:24:00,
2013-04-18 13:29:00,81.7,58.3,29.81,SE,146,8.4,18.4,45,0.00,BKN,OVC,0.00,835.0,WeatherDisplay:10.37,2013-04-18 17:29:00,
2013-04-18 13:34:00,81.5,58.7,29.81,SSW,201,5.1,10.4,46,0.00,BKN,OVC,0.00,840.0,WeatherDisplay:10.37,2013-04-18 17:34:00,
2013-04-18 13:39:00,81.8,59.0,29.81,South,170,8.2,16.1,46,0.00,BKN,OVC,0.00,840.0,WeatherDisplay:10.37,2013-04-18 17:39:00,
2013-04-18 13:44:00,81.8,59.0,29.81,SSW,207,10.4,19.6,46,0.00,BKN,OVC,0.00,838.0,WeatherDisplay:10.37,2013-04-18 17:44:00,
2013-04-18 13:49:00,82.0,58.6,29.80,SE,140,14.9,22.0,45,0.00,BKN,OVC,0.00,842.0,WeatherDisplay:10.37,2013-04-18 17:49:00,
2013-04-18 13:54:00,82.0,59.2,29.80,SSE,161,7.3,17.0,46,0.00,BKN,OVC,0.00,823.0,WeatherDisplay:10.37,2013-04-18 17:54:00,
2013-04-18 13:59:00,82.1,59.3,29.80,SW,222,7.8,13.8,46,0.00,BKN,OVC,0.00,817.0,WeatherDisplay:10.37,2013-04-18 17:59:00,
2013-04-18 14:04:00,82.4,58.9,29.80,SW,224,12.0,24.2,45,0.00,BKN,OVC,0.00,780.0,WeatherDisplay:10.37,2013-04-18 18:04:00,
2013-04-18 14:09:00,82.1,59.3,29.80,SSW,213,6.9,18.4,46,0.00,BKN,OVC,0.00,649.0,WeatherDisplay:10.37,2013-04-18 18:09:00,
2013-04-18 14:14:00,81.9,59.7,29.80,SW,232,8.7,20.7,47,0.00,BKN,OVC,0.00,652.0,WeatherDisplay:10.37,2013-04-18 18:14:00,
2013-04-18 14:19:00,81.8,59.0,29.80,SSW,209,10.4,17.3,46,0.00,BKN,OVC,0.00,733.0,WeatherDisplay:10.37,2013-04-18 18:19:00,
2013-04-18 14:24:00,82.0,59.2,29.80,SW,229,10.9,16.1,46,0.00,BKN,OVC,0.00,763.0,WeatherDisplay:10.37,2013-04-18 18:24:00,
2013-04-18 14:29:00,82.3,59.4,29.80,WSW,240,9.0,18.0,46,0.00,BKN,OVC,0.00,795.0,WeatherDisplay:10.37,2013-04-18 18:29:00,
2013-04-18 14:34:00,82.5,59.6,29.80,South,182,9.9,20.7,46,0.00,BKN,OVC,0.00,789.0,WeatherDisplay:10.37,2013-04-18 18:34:00,
2013-04-18 14:39:00,83.0,60.7,29.80,SW,215,9.2,14.0,47,0.00,BKN,OVC,0.00,796.0,WeatherDisplay:10.37,2013-04-18 18:39:00,
2013-04-18 14:44:00,83.4,59.8,29.80,SSE,161,15.6,22.0,45,0.00,BKN,OVC,0.00,793.0,WeatherDisplay:10.37,2013-04-18 18:44:00,
2013-04-18 14:49:00,83.4,59.8,29.79,WSW,244,3.4,15.0,45,0.00,BKN,OVC,0.00,772.0,WeatherDisplay:10.37,2013-04-18 18:49:00,
2013-04-18 14:54:00,83.6,60.0,29.79,SSW,198,5.0,19.6,45,0.00,BKN,OVC,0.00,687.0,WeatherDisplay:10.37,2013-04-18 18:54:00,
2013-04-18 14:59:00,83.7,60.1,29.79,SSW,209,5.4,17.3,45,0.00,BKN,OVC,0.00,682.0,WeatherDisplay:10.37,2013-04-18 18:59:00,
2013-04-18 15:04:00,83.6,60.0,29.79,South,174,7.2,18.4,45,0.00,BKN,OVC,0.00,740.0,WeatherDisplay:10.37,2013-04-18 19:04:00,
2013-04-18 15:09:00,83.7,60.1,29.79,SSW,208,10.8,18.4,45,0.00,BKN,OVC,0.00,733.0,WeatherDisplay:10.37,2013-04-18 19:09:00,
2013-04-18 15:14:00,83.8,60.2,29.78,South,175,7.3,15.0,45,0.00,BKN,OVC,0.00,717.0,WeatherDisplay:10.37,2013-04-18 19:14:00,
2013-04-18 15:19:00,84.1,60.5,29.78,SE,136,6.0,17.3,45,0.00,BKN,OVC,0.00,705.0,WeatherDisplay:10.37,2013-04-18 19:19:00,
2013-04-18 15:24:00,84.3,60.0,29.78,South,180,11.9,17.3,44,0.00,BKN,OVC,0.00,668.0,WeatherDisplay:10.37,2013-04-18 19:24:00,
2013-04-18 15:29:00,83.9,60.3,29.77,SSE,161,5.8,11.5,45,0.00,BKN,OVC,0.00,475.0,WeatherDisplay:10.37,2013-04-18 19:29:00,
2013-04-18 15:34:00,83.4,59.8,29.77,South,188,8.0,14.0,45,0.00,BKN,OVC,0.00,403.0,WeatherDisplay:10.37,2013-04-18 19:34:00,
2013-04-18 15:39:00,82.9,59.4,29.77,SSW,194,12.8,25.3,45,0.00,BKN,OVC,0.00,522.0,WeatherDisplay:10.37,2013-04-18 19:39:00,
2013-04-18 15:44:00,82.5,59.6,29.76,SSW,202,13.3,21.0,46,0.00,BKN,OVC,0.00,613.0,WeatherDisplay:10.37,2013-04-18 19:44:00,
2013-04-18 15:49:00,82.4,59.5,29.76,SSE,166,10.8,17.3,46,0.00,BKN,OVC,0.00,684.0,WeatherDisplay:10.37,2013-04-18 19:49:00,
2013-04-18 15:54:00,82.3,59.4,29.77,SE,138,10.4,19.6,46,0.00,BKN,OVC,0.00,621.0,WeatherDisplay:10.37,2013-04-18 19:54:00,
2013-04-18 15:59:00,81.6,59.4,29.75,South,169,14.9,21.0,47,0.00,BKN,OVC,0.00,550.0,WeatherDisplay:10.37,2013-04-18 19:59:00,
2013-04-18 16:04:00,81.3,59.7,29.75,South,173,9.8,19.6,48,0.00,BKN,OVC,0.00,589.0,WeatherDisplay:10.37,2013-04-18 20:04:00,
2013-04-18 16:09:00,81.4,59.8,29.75,SE,146,11.8,21.9,48,0.00,BKN,OVC,0.00,580.0,WeatherDisplay:10.37,2013-04-18 20:09:00,
2013-04-18 16:14:00,81.6,59.4,29.75,South,173,9.1,17.3,47,0.00,BKN,OVC,0.00,601.0,WeatherDisplay:10.37,2013-04-18 20:14:00,
2013-04-18 16:19:00,82.0,60.4,29.75,South,176,9.4,19.0,48,0.00,BKN,OVC,0.00,563.0,WeatherDisplay:10.37,2013-04-18 20:19:00,
2013-04-18 16:24:00,82.0,59.8,29.74,South,174,11.3,17.3,47,0.00,BKN,OVC,0.00,475.0,WeatherDisplay:10.37,2013-04-18 20:24:00,
2013-04-18 16:29:00,81.2,59.1,29.74,SSW,194,12.7,22.0,47,0.00,BKN,OVC,0.00,531.0,WeatherDisplay:10.37,2013-04-18 20:29:00,
2013-04-18 16:34:00,80.6,59.1,29.74,SSE,163,9.6,25.3,48,0.00,BKN,OVC,0.00,473.0,WeatherDisplay:10.37,2013-04-18 20:34:00,
2013-04-18 16:39:00,80.0,58.5,29.74,SSW,198,13.0,26.5,48,0.00,BKN,OVC,0.00,464.0,WeatherDisplay:10.37,2013-04-18 20:39:00,
2013-04-18 16:44:00,79.5,59.2,29.74,SSE,163,10.9,20.0,50,0.00,BKN,OVC,0.00,413.0,WeatherDisplay:10.37,2013-04-18 20:44:00,
2013-04-18 16:49:00,79.2,59.0,29.74,South,189,12.8,26.5,50,0.00,BKN,OVC,0.00,455.0,WeatherDisplay:10.37,2013-04-18 20:49:00,
2013-04-18 16:54:00,79.3,59.0,29.74,SSW,206,7.8,22.0,50,0.00,BKN,OVC,0.00,413.0,WeatherDisplay:10.37,2013-04-18 20:54:00,
2013-04-18 16:59:00,79.4,59.1,29.75,SSE,159,8.4,15.0,50,0.00,BKN,OVC,0.00,357.0,WeatherDisplay:10.37,2013-04-18 20:59:00,
2013-04-18 17:04:00,79.1,58.9,29.74,SSW,192,15.2,21.0,50,0.00,BKN,OVC,0.00,392.0,WeatherDisplay:10.37,2013-04-18 21:04:00,
2013-04-18 17:09:00,78.7,59.0,29.74,SSE,150,8.6,15.0,51,0.00,BKN,OVC,0.00,362.0,WeatherDisplay:10.37,2013-04-18 21:09:00,
2013-04-18 17:14:00,78.5,58.9,29.75,SSW,199,10.6,24.2,51,0.00,BKN,OVC,0.00,329.0,WeatherDisplay:10.37,2013-04-18 21:14:00,
2013-04-18 17:19:00,78.1,58.5,29.75,SSW,204,12.0,19.6,51,0.00,BKN,OVC,0.00,311.0,WeatherDisplay:10.37,2013-04-18 21:19:00,
2013-04-18 17:24:00,77.8,58.8,29.74,SW,223,9.0,24.2,52,0.00,BKN,OVC,0.00,357.0,WeatherDisplay:10.37,2013-04-18 21:24:00,
2013-04-18 17:29:00,77.7,58.7,29.74,SSE,155,7.4,16.0,52,0.00,BKN,OVC,0.00,318.0,WeatherDisplay:10.37,2013-04-18 21:29:00,
2013-04-18 17:34:00,77.6,59.1,29.74,South,186,10.3,17.3,53,0.00,BKN,OVC,0.00,336.0,WeatherDisplay:10.37,2013-04-18 21:34:00,
2013-04-18 17:39:00,77.6,59.1,29.74,SW,225,9.8,13.8,53,0.00,BKN,OVC,0.00,329.0,WeatherDisplay:10.37,2013-04-18 21:39:00,
2013-04-18 17:44:00,77.3,58.8,29.74,SSW,201,8.6,20.0,53,0.00,BKN,OVC,0.00,260.0,WeatherDisplay:10.37,2013-04-18 21:44:00,
2013-04-18 17:49:00,76.9,58.5,29.74,SSW,205,11.0,24.2,53,0.00,BKN,OVC,0.00,236.0,WeatherDisplay:10.37,2013-04-18 21:49:00,
2013-04-18 17:55:00,76.4,58.5,29.74,SSE,167,12.3,25.3,54,0.00,BKN,OVC,0.00,241.0,WeatherDisplay:10.37,2013-04-18 21:55:00,
2013-04-18 18:00:00,75.9,58.6,29.73,South,184,9.5,19.6,55,0.00,BKN,OVC,0.00,246.0,WeatherDisplay:10.37,2013-04-18 22:00:00,
2013-04-18 18:05:00,75.7,58.4,29.73,South,173,13.9,22.0,55,0.00,OVC,,0.00,193.0,WeatherDisplay:10.37,2013-04-18 22:05:00,
2013-04-18 18:10:00,75.6,58.8,29.72,SSE,163,13.2,23.0,56,0.00,OVC,,0.00,232.0,WeatherDisplay:10.37,2013-04-18 22:10:00,
2013-04-18 18:15:00,75.4,58.6,29.72,SE,144,11.0,24.2,56,0.00,OVC,,0.00,207.0,WeatherDisplay:10.37,2013-04-18 22:15:00,
2013-04-18 18:20:00,75.3,58.5,29.72,SSE,149,14.5,20.0,56,0.00,OVC,,0.00,211.0,WeatherDisplay:10.37,2013-04-18 22:20:00,
2013-04-18 18:25:00,75.2,58.9,29.72,SW,229,7.7,22.0,57,0.00,OVC,,0.00,186.0,WeatherDisplay:10.37,2013-04-18 22:25:00,
2013-04-18 18:30:00,74.8,58.1,29.72,South,171,13.9,23.0,56,0.00,OVC,,0.00,211.0,WeatherDisplay:10.37,2013-04-18 22:30:00,
2013-04-18 18:35:00,74.4,58.2,29.72,South,184,7.2,21.9,57,0.00,OVC,,0.00,213.0,WeatherDisplay:10.37,2013-04-18 22:35:00,
2013-04-18 18:40:00,74.0,58.3,29.72,SSW,209,5.5,18.4,58,0.00,OVC,,0.00,169.0,WeatherDisplay:10.37,2013-04-18 22:40:00,
2013-04-18 18:45:00,73.8,58.1,29.73,South,178,15.1,24.2,58,0.00,OVC,,0.00,116.0,WeatherDisplay:10.37,2013-04-18 22:45:00,
2013-04-18 18:50:00,73.3,58.1,29.73,SSW,204,13.7,22.0,59,0.00,OVC,,0.00,91.0,WeatherDisplay:10.37,2013-04-18 22:50:00,
2013-04-18 18:55:00,72.9,57.7,29.72,South,178,12.9,26.5,59,0.00,OVC,,0.00,84.0,WeatherDisplay:10.37,2013-04-18 22:55:00,
2013-04-18 19:00:00,72.6,57.9,29.73,South,175,13.6,23.0,60,0.00,OVC,,0.00,74.0,WeatherDisplay:10.37,2013-04-18 23:00:00,
2013-04-18 19:05:00,72.3,57.6,29.72,South,187,3.8,15.0,60,0.00,BKN,OVC,0.00,63.0,WeatherDisplay:10.37,2013-04-18 23:05:00,
2013-04-18 19:10:00,72.0,57.8,29.73,SSE,157,7.7,24.2,61,0.00,BKN,OVC,0.00,53.0,WeatherDisplay:10.37,2013-04-18 23:10:00,
2013-04-18 19:15:00,71.7,57.5,29.72,SSE,161,11.4,25.3,61,0.00,BKN,OVC,0.00,40.0,WeatherDisplay:10.37,2013-04-18 23:15:00,
2013-04-18 19:20:00,71.3,57.6,29.72,SSW,202,9.8,21.9,62,0.00,BKN,OVC,0.00,32.0,WeatherDisplay:10.37,2013-04-18 23:20:00,
2013-04-18 19:25:00,70.9,57.7,29.72,SSE,163,7.1,11.5,63,0.00,BKN,OVC,0.00,30.0,WeatherDisplay:10.37,2013-04-18 23:25:00,
2013-04-18 19:30:00,70.6,57.4,29.72,SSE,160,13.1,21.9,63,0.00,BKN,OVC,0.00,26.0,WeatherDisplay:10.37,2013-04-18 23:30:00,
2013-04-18 19:35:00,70.3,57.5,29.72,South,174,11.8,21.0,64,0.00,BKN,OVC,0.00,21.0,WeatherDisplay:10.37,2013-04-18 23:35:00,
2013-04-18 19:40:00,70.1,57.4,29.71,SE,140,11.9,23.0,64,0.00,BKN,OVC,0.00,16.0,WeatherDisplay:10.37,2013-04-18 23:40:00,
2013-04-18 19:45:00,69.8,57.5,29.71,SSE,159,11.8,20.0,65,0.00,BKN,OVC,0.00,11.0,WeatherDisplay:10.37,2013-04-18 23:45:00,
2013-04-18 19:50:00,69.6,57.3,29.71,SSE,163,6.1,18.4,65,0.00,BKN,OVC,0.00,7.0,WeatherDisplay:10.37,2013-04-18 23:50:00,
2013-04-18 19:55:00,69.4,57.5,29.71,South,182,8.7,17.3,66,0.00,BKN,OVC,0.00,0.0,WeatherDisplay:10.37,2013-04-18 23:55:00,
2013-04-18 20:00:00,69.2,57.4,29.71,South,172,8.4,21.9,66,0.00,BKN,OVC,0.00,0.0,WeatherDisplay:10.37,2013-04-19 00:00:00,
2013-04-18 20:05:00,69.0,57.2,29.71,SE,133,15.0,22.0,66,0.00,BKN,OVC,0.00,0.0,WeatherDisplay:10.37,2013-04-19 00:05:00,
2013-04-18 20:10:00,68.8,57.4,29.71,South,186,15.6,30.0,67,0.00,BKN,OVC,0.00,0.0,WeatherDisplay:10.37,2013-04-19 00:10:00,
2013-04-18 20:15:00,68.7,57.3,29.71,SSE,160,11.2,20.0,67,0.00,BKN,OVC,0.00,0.0,WeatherDisplay:10.37,2013-04-19 00:15:00,
2013-04-18 20:20:00,68.5,57.5,29.71,South,169,11.4,23.0,68,0.00,BKN,OVC,0.00,0.0,WeatherDisplay:10.37,2013-04-19 00:20:00,
2013-04-18 20:25:00,68.3,57.3,29.70,SE,133,18.2,24.0,68,0.00,BKN,OVC,0.00,0.0,WeatherDisplay:10.37,2013-04-19 00:25:00,
2013-04-18 20:30:00,68.2,57.2,29.71,SSE,153,11.7,21.0,68,0.00,BKN,OVC,0.00,0.0,WeatherDisplay:10.37,2013-04-19 00:30:00,
2013-04-18 20:35:00,68.0,57.0,29.70,South,177,17.4,28.0,68,0.00,BKN,OVC,0.00,0.0,WeatherDisplay:10.37,2013-04-19 00:35:00,
2013-04-18 20:40:00,68.0,57.4,29.70,South,186,11.1,19.6,69,0.00,BKN,OVC,0.00,0.0,WeatherDisplay:10.37,2013-04-19 00:40:00,
2013-04-18 20:45:00,68.0,57.4,29.70,SSE,163,14.6,21.0,69,0.00,BKN,OVC,0.00,0.0,WeatherDisplay:10.37,2013-04-19 00:45:00,
2013-04-18 20:50:00,67.9,57.4,29.70,SSE,163,15.8,23.0,69,0.00,BKN,OVC,0.00,0.0,WeatherDisplay:10.37,2013-04-19 00:50:00,
2013-04-18 20:55:00,67.9,57.4,29.70,SSE,153,14.7,25.0,69,0.00,BKN,OVC,0.00,0.0,WeatherDisplay:10.37,2013-04-19 00:55:00,
2013-04-18 21:00:00,68.0,57.4,29.70,South,182,12.2,27.6,69,0.00,BKN,OVC,0.00,0.0,WeatherDisplay:10.37,2013-04-19 01:00:00,
2013-04-18 21:05:00,68.0,57.4,29.70,South,182,8.3,19.6,69,0.00,BKN,OVC,0.00,0.0,WeatherDisplay:10.37,2013-04-19 01:05:00,
2013-04-18 21:10:00,67.9,57.4,29.70,SSE,168,14.5,24.0,69,0.00,BKN,OVC,0.00,0.0,WeatherDisplay:10.37,2013-04-19 01:10:00,
2013-04-18 21:15:00,68.1,57.5,29.70,SSE,150,13.9,24.2,69,0.00,BKN,OVC,0.00,0.0,WeatherDisplay:10.37,2013-04-19 01:15:00,
2013-04-18 21:20:00,68.1,57.5,29.70,South,172,11.0,16.1,69,0.00,BKN,OVC,0.00,0.0,WeatherDisplay:10.37,2013-04-19 01:20:00,
2013-04-18 21:25:00,68.1,57.5,29.70,SSE,149,9.1,20.7,69,0.00,BKN,OVC,0.00,0.0,WeatherDisplay:10.37,2013-04-19 01:25:00,
2013-04-18 21:30:00,68.2,57.6,29.70,SSE,163,7.5,19.6,69,0.00,BKN,OVC,0.00,0.0,WeatherDisplay:10.37,2013-04-19 01:30:00,
2013-04-18 21:35:00,68.2,57.6,29.70,South,170,10.0,20.7,69,0.00,BKN,OVC,0.00,0.0,WeatherDisplay:10.37,2013-04-19 01:35:00,
2013-04-18 21:40:00,68.3,57.7,29.70,SSE,163,11.0,28.8,69,0.00,BKN,OVC,0.00,0.0,WeatherDisplay:10.37,2013-04-19 01:40:00,
2013-04-18 21:45:00,68.4,57.8,29.70,South,173,11.3,19.6,69,0.00,BKN,OVC,0.00,0.0,WeatherDisplay:10.37,2013-04-19 01:45:00,
2013-04-18 21:50:00,68.5,57.9,29.70,SSE,164,9.5,25.3,69,0.00,BKN,OVC,0.00,0.0,WeatherDisplay:10.37,2013-04-19 01:50:00,
2013-04-18 21:55:00,68.6,58.0,29.70,South,186,12.7,28.0,69,0.00,BKN,OVC,0.00,0.0,WeatherDisplay:10.37,2013-04-19 01:55:00,
2013-04-18 22:00:00,68.6,58.0,29.70,SSW,195,7.6,18.4,69,0.00,BKN,OVC,0.00,0.0,WeatherDisplay:10.37,2013-04-19 02:00:00,
2013-04-18 22:05:00,68.7,58.1,29.70,South,190,12.8,22.0,69,0.00,BKN,OVC,0.00,0.0,WeatherDisplay:10.37,2013-04-19 02:05:00,
2013-04-18 22:10:00,68.8,57.8,29.69,WSW,251,15.6,34.5,68,0.00,BKN,OVC,0.00,0.0,WeatherDisplay:10.37,2013-04-19 02:10:00,
2013-04-18 22:15:00,68.9,57.9,29.69,South,177,13.7,22.0,68,0.00,BKN,OVC,0.00,0.0,WeatherDisplay:10.37,2013-04-19 02:15:00,
2013-04-18 22:20:00,69.0,58.0,29.70,SSW,204,7.2,19.6,68,0.00,BKN,OVC,0.00,0.0,WeatherDisplay:10.37,2013-04-19 02:20:00,
2013-04-18 22:25:00,69.0,58.0,29.70,South,181,16.8,26.5,68,0.00,BKN,OVC,0.00,0.0,WeatherDisplay:10.37,2013-04-19 02:25:00,
2013-04-18 22:30:00,69.2,58.2,29.69,SSE,165,10.2,26.5,68,0.00,BKN,OVC,0.00,0.0,WeatherDisplay:10.37,2013-04-19 02:30:00,
2013-04-18 22:35:00,69.3,57.9,29.69,South,191,15.7,25.0,67,0.00,BKN,OVC,0.00,0.0,WeatherDisplay:10.37,2013-04-19 02:35:00,
2013-04-18 22:40:00,69.4,58.0,29.69,SSE,163,14.0,26.5,67,0.00,BKN,OVC,0.00,0.0,WeatherDisplay:10.37,2013-04-19 02:40:00,
2013-04-18 22:45:00,69.5,58.1,29.68,South,171,10.6,24.2,67,0.00,BKN,OVC,0.00,0.0,WeatherDisplay:10.37,2013-04-19 02:45:00,
2013-04-18 22:50:00,69.5,58.1,29.68,SSE,158,15.2,26.5,67,0.00,BKN,OVC,0.00,0.0,WeatherDisplay:10.37,2013-04-19 02:50:00,
2013-04-18 22:55:00,69.7,57.8,29.69,SSW,211,14.7,26.0,66,0.00,BKN,OVC,0.00,0.0,WeatherDisplay:10.37,2013-04-19 02:55:00,
2013-04-18 23:00:00,69.7,57.8,29.68,SW,236,12.5,23.0,66,0.00,BKN,OVC,0.00,0.0,WeatherDisplay:10.37,2013-04-19 03:00:00,
2013-04-18 23:05:00,69.9,58.0,29.68,SSW,194,14.7,23.0,66,0.00,BKN,OVC,0.00,0.0,WeatherDisplay:10.37,2013-04-19 03:05:00,
2013-04-18 23:10:00,70.0,57.7,29.68,South,182,10.3,24.2,65,0.00,BKN,OVC,0.00,0.0,WeatherDisplay:10.37,2013-04-19 03:10:00,
2013-04-18 23:16:00,70.1,57.8,29.68,South,170,6.2,24.2,65,0.00,BKN,OVC,0.00,0.0,WeatherDisplay:10.37,2013-04-19 03:16:00,
2013-04-18 23:20:00,70.1,57.8,29.67,South,169,13.8,21.9,65,0.00,BKN,OVC,0.00,0.0,WeatherDisplay:10.37,2013-04-19 03:20:00,
2013-04-18 23:26:00,70.2,57.9,29.68,SSW,201,10.0,23.0,65,0.00,BKN,OVC,0.00,0.0,WeatherDisplay:10.37,2013-04-19 03:26:00,
2013-04-18 23:31:00,70.3,57.5,29.67,SSW,192,10.6,29.9,64,0.00,BKN,OVC,0.00,0.0,WeatherDisplay:10.37,2013-04-19 03:31:00,
2013-04-18 23:36:00,70.3,57.5,29.67,South,180,13.3,23.0,64,0.00,BKN,OVC,0.00,0.0,WeatherDisplay:10.37,2013-04-19 03:36:00,
2013-04-18 23:41:00,70.4,57.6,29.67,South,188,9.2,19.6,64,0.00,BKN,OVC,0.00,0.0,WeatherDisplay:10.37,2013-04-19 03:41:00,
2013-04-18 23:46:00,70.4,57.6,29.66,SW,219,15.7,28.0,64,0.00,BKN,OVC,0.00,0.0,WeatherDisplay:10.37,2013-04-19 03:46:00,
2013-04-18 23:51:00,70.5,57.7,29.67,South,182,12.2,21.9,64,0.00,BKN,OVC,0.00,0.0,WeatherDisplay:10.37,2013-04-19 03:51:00,
2013-04-18 23:56:00,70.6,57.4,29.67,SSE,163,14.7,23.0,63,0.00,BKN,OVC,0.00,0.0,WeatherDisplay:10.37,2013-04-19 03:56:00,